User: anonymous   Login
Location: Unspecified
(0.0000°N, 0.0000°E)
Time: 10:55:17
(UTC+00:00)
Language:

N. Korean satellite - Orbit

View from above orbital plane
View from above orbital plane
View from above satellite
View from above satellite

Ground track
Ground track

The orbit data is extracted from the following two-line orbital elements,

1 39026U 12072A   15029.16359656  .00008417  00000-0  40773-3 0  2447
2 39026 097.3015 065.5298 0048786 004.1063 356.0562 15.17722218117618
Epoch (UTC): 29 January 2015 03:55:34
Eccentricity: 0.0048786
inclination: 97.3015°
perigee height: 479 km
apogee height: 546 km
right ascension of ascending node: 65.5298°
argument of perigee: 4.1063°
revolutions per day: 15.17722218
mean anomaly at epoch: 356.0562°
orbit number at epoch: 11761

The dashed part of the orbit path shows where the satellite is in the earth's shadow,  

DLR